Location: Wapato
(46.4478°N, 120.4212°W)
Time: 23:25:28
(UTC+00:00)

S-56A Canister/Altair - Pass Details

Date: 15 May 2026
Orbit: 633 x 2484 km, 38.9° (Epoch: 7 June)

Event Time Altitude Azimuth Distance (km) Brightness Sun altitude
Rises 06:21:04 0° 251° (WSW) 2,916 10.6 -21.1°
Reaches altitude 10° 06:23:25 10° 241° (WSW) 2,015 9.6 -21.3°
Enters shadow 06:25:00 20° 228° (SW) 1,494 8.8 -21.4°
